Time,TemperatureF,DewpointF,PressureIn,WindDirection,WindDirectionDegrees,WindSpeedMPH,WindSpeedGustMPH,Humidity,HourlyPrecipIn,Conditions,Clouds,dailyrainin,SoftwareType,DateUTC
2013-03-10 00:01:00,49.0,47.0,29.65,SSE,162,3.0,5.0,93,0.00,,,0.17,,2013-03-10 06:01:00,
2013-03-10 00:11:00,49.0,47.0,29.62,SE,138,3.0,6.0,93,0.00,,,0.17,,2013-03-10 06:11:00,
2013-03-10 00:22:00,49.0,47.0,29.62,SE,138,3.0,6.0,93,0.00,,,0.17,,2013-03-10 06:22:00,
2013-03-10 00:32:00,49.0,47.0,29.63,SE,138,0.0,3.0,93,0.00,,,0.17,,2013-03-10 06:32:00,
2013-03-10 00:42:00,49.0,47.0,29.64,SE,138,0.0,3.0,93,0.00,,,0.17,,2013-03-10 06:42:00,
2013-03-10 00:52:00,49.0,47.0,29.64,SE,138,0.0,3.0,93,0.00,,,0.17,,2013-03-10 06:52:00,
2013-03-10 01:01:00,49.0,47.0,29.63,SE,138,4.0,4.0,93,0.00,,,0.17,,2013-03-10 07:01:00,
2013-03-10 01:11:00,49.0,47.0,29.61,East,93,3.0,5.0,93,0.00,,,0.17,,2013-03-10 07:11:00,
2013-03-10 01:21:00,49.0,47.0,29.61,East,93,3.0,5.0,93,0.00,,,0.17,,2013-03-10 07:21:00,
2013-03-10 01:31:00,49.0,47.0,29.62,East,93,3.0,4.0,93,0.00,,,0.17,,2013-03-10 07:31:00,
2013-03-10 01:42:00,49.0,47.0,29.62,East,93,2.0,3.0,93,0.00,,,0.17,,2013-03-10 07:42:00,
2013-03-10 01:52:00,49.0,47.0,29.62,East,93,2.0,3.0,93,0.00,,,0.17,,2013-03-10 07:52:00,
2013-03-10 03:01:00,49.0,47.0,29.62,East,96,1.0,4.0,93,0.00,,,0.17,,2013-03-10 08:01:00,
2013-03-10 03:11:00,49.0,47.0,29.61,East,97,3.0,5.0,93,0.00,,,0.17,,2013-03-10 08:11:00,
2013-03-10 03:21:00,49.0,47.0,29.61,East,97,3.0,5.0,93,0.00,,,0.17,,2013-03-10 08:21:00,
2013-03-10 03:31:00,49.0,47.0,29.62,ESE,122,2.0,4.0,93,0.00,,,0.17,,2013-03-10 08:31:00,
2013-03-10 03:42:00,49.0,47.0,29.60,ESE,122,0.0,4.0,93,0.00,,,0.17,,2013-03-10 08:42:00,
2013-03-10 03:52:00,49.0,47.0,29.60,ESE,122,0.0,4.0,93,0.00,,,0.17,,2013-03-10 08:52:00,
2013-03-10 04:01:00,50.0,48.0,29.60,SE,146,2.0,4.0,94,0.00,,,0.17,,2013-03-10 09:01:00,
2013-03-10 04:11:00,50.0,48.0,29.61,SSE,153,4.0,8.0,94,0.00,,,0.17,,2013-03-10 09:11:00,
2013-03-10 04:21:00,50.0,48.0,29.61,SSE,153,4.0,8.0,94,0.00,,,0.17,,2013-03-10 09:21:00,
2013-03-10 04:31:00,50.0,48.0,29.59,SSE,162,2.0,6.0,93,0.00,,,0.17,,2013-03-10 09:31:00,
2013-03-10 04:41:00,51.0,49.0,29.60,SSE,163,3.0,5.0,93,0.00,,,0.17,,2013-03-10 09:41:00,
2013-03-10 04:52:00,51.0,49.0,29.60,SSE,163,3.0,5.0,93,0.00,,,0.17,,2013-03-10 09:52:00,
2013-03-10 05:01:00,50.0,48.0,29.58,SSE,153,2.0,5.0,94,0.00,,,0.17,,2013-03-10 10:01:00,
2013-03-10 05:11:00,50.0,48.0,29.57,SSE,151,1.0,3.0,93,0.00,,,0.17,,2013-03-10 10:11:00,
2013-03-10 05:21:00,50.0,48.0,29.57,SSE,151,1.0,3.0,93,0.00,,,0.17,,2013-03-10 10:21:00,
2013-03-10 05:32:00,50.0,48.0,29.58,SSE,160,3.0,6.0,93,0.00,,,0.17,,2013-03-10 10:32:00,
2013-03-10 05:41:00,50.0,48.0,29.63,SSW,201,3.0,8.0,94,0.00,,,0.17,,2013-03-10 10:41:00,
2013-03-10 05:52:00,50.0,48.0,29.63,SSW,201,3.0,8.0,94,0.00,,,0.17,,2013-03-10 10:52:00,
2013-03-10 06:01:00,50.0,48.0,29.63,South,191,4.0,6.0,94,0.00,,,0.17,,2013-03-10 11:01:00,
2013-03-10 06:11:00,50.0,48.0,29.63,South,182,3.0,7.0,94,0.00,,,0.17,,2013-03-10 11:11:00,
2013-03-10 06:21:00,50.0,48.0,29.63,South,182,3.0,7.0,94,0.00,,,0.17,,2013-03-10 11:21:00,
2013-03-10 06:31:00,50.0,48.0,29.62,South,179,2.0,6.0,94,0.00,,,0.17,,2013-03-10 11:31:00,
2013-03-10 06:42:00,50.0,48.0,29.62,South,179,2.0,6.0,94,0.00,,,0.17,,2013-03-10 11:42:00,
2013-03-10 06:52:00,50.0,48.0,29.65,SSW,211,6.0,6.0,94,0.00,,,0.17,,2013-03-10 11:52:00,
2013-03-10 07:01:00,48.0,46.0,29.62,WNW,295,6.0,17.0,94,0.00,,,0.17,,2013-03-10 12:01:00,
2013-03-10 07:11:00,48.0,46.0,29.62,WNW,295,6.0,17.0,94,0.00,,,0.17,,2013-03-10 12:11:00,
2013-03-10 07:21:00,45.0,43.0,29.61,NW,320,6.0,11.0,93,0.00,,,0.17,,2013-03-10 12:21:00,
2013-03-10 07:31:00,44.0,42.0,29.63,North,6,9.0,10.0,93,0.00,,,0.17,,2013-03-10 12:31:00,
2013-03-10 07:42:00,44.0,42.0,29.63,North,6,9.0,10.0,93,0.00,,,0.17,,2013-03-10 12:42:00,
2013-03-10 07:52:00,44.0,42.0,29.66,NNW,345,3.0,7.0,93,0.00,,,0.17,,2013-03-10 12:52:00,
2013-03-10 08:01:00,43.0,41.0,29.67,NW,307,0.0,7.0,93,0.00,,,0.17,,2013-03-10 13:01:00,
2013-03-10 08:11:00,43.0,41.0,29.67,NW,307,0.0,7.0,93,0.00,,,0.17,,2013-03-10 13:11:00,
2013-03-10 08:21:00,43.0,41.0,29.68,NW,322,3.0,10.0,93,0.00,,,0.17,,2013-03-10 13:21:00,
2013-03-10 08:31:00,43.0,41.0,29.68,NW,322,3.0,10.0,93,0.00,,,0.17,,2013-03-10 13:31:00,
2013-03-10 08:41:00,43.0,41.0,29.68,NW,322,3.0,10.0,93,0.00,,,0.17,,2013-03-10 13:41:00,
2013-03-10 08:52:00,43.0,41.0,29.68,NW,322,3.0,10.0,93,0.00,,,0.17,,2013-03-10 13:52:00,
2013-03-10 09:01:00,42.0,40.0,29.67,NNW,345,3.0,9.0,93,0.00,,,0.17,,2013-03-10 14:01:00,
2013-03-10 09:11:00,42.0,40.0,29.67,NNW,345,3.0,9.0,93,0.00,,,0.17,,2013-03-10 14:11:00,
2013-03-10 09:21:00,41.0,39.0,29.66,NNW,343,6.0,14.0,93,0.00,,,0.17,,2013-03-10 14:21:00,
2013-03-10 09:32:00,40.0,38.0,29.66,NNW,343,7.0,17.0,93,0.00,,,0.17,,2013-03-10 14:32:00,
2013-03-10 09:41:00,40.0,38.0,29.66,NNW,343,7.0,17.0,93,0.00,,,0.17,,2013-03-10 14:41:00,
2013-03-10 09:52:00,38.0,36.0,29.67,NNW,347,4.0,13.0,93,0.00,,,0.17,,2013-03-10 14:52:00,
2013-03-10 10:01:00,38.0,36.0,29.70,West,280,4.0,13.0,93,0.00,,,0.17,,2013-03-10 15:01:00,
2013-03-10 10:11:00,38.0,36.0,29.70,West,280,4.0,13.0,93,0.00,,,0.17,,2013-03-10 15:11:00,
2013-03-10 10:21:00,38.0,36.0,29.70,NW,326,5.0,19.0,93,0.00,,,0.17,,2013-03-10 15:21:00,
2013-03-10 10:32:00,37.0,35.0,29.67,North,2,9.0,15.0,93,0.00,,,0.17,,2013-03-10 15:32:00,
2013-03-10 10:42:00,37.0,35.0,29.67,North,2,9.0,15.0,93,0.00,,,0.17,,2013-03-10 15:42:00,
2013-03-10 10:52:00,37.0,35.0,29.67,North,5,10.0,20.0,93,0.00,,,0.17,,2013-03-10 15:52:00,
2013-03-10 11:01:00,37.0,35.0,29.69,NNW,347,4.0,13.0,93,0.00,,,0.17,,2013-03-10 16:01:00,
2013-03-10 11:12:00,37.0,35.0,29.69,NNW,347,4.0,13.0,93,0.00,,,0.17,,2013-03-10 16:12:00,
2013-03-10 11:21:00,37.0,35.0,29.69,North,5,1.0,12.0,93,0.00,,,0.17,,2013-03-10 16:21:00,
2013-03-10 11:31:00,37.0,35.0,29.68,NNW,346,4.0,11.0,93,0.00,,,0.17,,2013-03-10 16:31:00,
2013-03-10 11:41:00,37.0,35.0,29.68,NNW,346,4.0,11.0,93,0.00,,,0.17,,2013-03-10 16:41:00,
2013-03-10 11:52:00,37.0,35.0,29.67,North,353,7.0,10.0,93,0.02,,,0.19,,2013-03-10 16:52:00,
2013-03-10 12:01:00,37.0,35.0,29.71,North,358,6.0,11.0,93,0.02,,,0.19,,2013-03-10 17:01:00,
2013-03-10 12:11:00,37.0,35.0,29.71,North,358,6.0,11.0,93,0.02,,,0.19,,2013-03-10 17:11:00,
2013-03-10 12:21:00,37.0,35.0,29.69,North,351,4.0,12.0,93,0.02,,,0.19,,2013-03-10 17:21:00,
2013-03-10 12:31:00,37.0,35.0,29.69,North,6,4.0,9.0,93,0.01,,,0.19,,2013-03-10 17:31:00,
2013-03-10 12:41:00,37.0,35.0,29.69,North,6,4.0,9.0,93,0.01,,,0.19,,2013-03-10 17:41:00,
2013-03-10 12:51:00,37.0,35.0,29.69,NNW,342,5.0,10.0,93,0.01,,,0.20,,2013-03-10 17:51:00,
2013-03-10 13:01:00,38.0,36.0,29.68,North,359,5.0,8.0,93,0.01,,,0.20,,2013-03-10 18:01:00,
2013-03-10 13:11:00,37.0,35.0,29.70,NNW,345,6.0,16.0,93,0.01,,,0.20,,2013-03-10 18:11:00,
2013-03-10 13:21:00,37.0,35.0,29.70,NNW,345,6.0,16.0,93,0.01,,,0.20,,2013-03-10 18:21:00,
2013-03-10 13:32:00,37.0,35.0,29.69,NW,326,8.0,13.0,93,0.01,,,0.20,,2013-03-10 18:32:00,
2013-03-10 13:41:00,37.0,35.0,29.69,NW,326,8.0,13.0,93,0.01,,,0.20,,2013-03-10 18:41:00,
2013-03-10 13:52:00,37.0,35.0,29.67,NNE,20,6.0,15.0,93,0.00,,,0.20,,2013-03-10 18:52:00,
2013-03-10 14:01:00,37.0,35.0,29.68,NNW,341,9.0,10.0,93,0.00,,,0.20,,2013-03-10 19:01:00,
2013-03-10 14:11:00,37.0,35.0,29.68,NNW,341,9.0,10.0,93,0.00,,,0.20,,2013-03-10 19:11:00,
2013-03-10 14:21:00,37.0,35.0,29.68,NNW,327,11.0,14.0,92,0.00,,,0.20,,2013-03-10 19:21:00,
2013-03-10 14:31:00,37.0,35.0,29.67,NW,325,3.0,14.0,93,0.00,,,0.20,,2013-03-10 19:31:00,
2013-03-10 14:42:00,37.0,35.0,29.67,NW,325,3.0,14.0,93,0.00,,,0.20,,2013-03-10 19:42:00,
2013-03-10 14:53:00,37.0,35.0,29.67,NNW,337,7.0,11.0,92,0.00,,,0.20,,2013-03-10 19:53:00,
2013-03-10 15:02:00,37.0,35.0,29.68,NW,317,8.0,10.0,92,0.00,,,0.20,,2013-03-10 20:02:00,
2013-03-10 15:12:00,37.0,35.0,29.68,NW,317,8.0,10.0,92,0.00,,,0.20,,2013-03-10 20:12:00,
2013-03-10 15:22:00,37.0,35.0,29.69,NW,322,9.0,23.0,92,0.00,,,0.20,,2013-03-10 20:22:00,
2013-03-10 15:32:00,36.0,34.0,29.70,North,356,10.0,21.0,92,0.00,,,0.20,,2013-03-10 20:32:00,
2013-03-10 15:42:00,36.0,34.0,29.70,North,356,10.0,21.0,92,0.00,,,0.20,,2013-03-10 20:42:00,
2013-03-10 15:53:00,36.0,34.0,29.68,WNW,294,6.0,22.0,92,0.00,,,0.20,,2013-03-10 20:53:00,
2013-03-10 16:02:00,36.0,34.0,29.71,WNW,286,9.0,13.0,91,0.00,,,0.20,,2013-03-10 21:02:00,
2013-03-10 16:12:00,36.0,34.0,29.71,WNW,286,9.0,13.0,91,0.00,,,0.20,,2013-03-10 21:12:00,
2013-03-10 16:22:00,35.0,33.0,29.72,WNW,294,5.0,17.0,91,0.00,,,0.20,,2013-03-10 21:22:00,
2013-03-10 16:32:00,35.0,33.0,29.74,WSW,249,2.0,14.0,91,0.00,,,0.20,,2013-03-10 21:32:00,
2013-03-10 16:42:00,35.0,33.0,29.74,WSW,249,2.0,14.0,91,0.00,,,0.20,,2013-03-10 21:42:00,
2013-03-10 16:53:00,34.0,32.0,29.73,NW,310,17.0,22.0,91,0.00,,,0.20,,2013-03-10 21:53:00,
2013-03-10 17:02:00,33.0,31.0,29.76,NW,314,15.0,24.0,91,0.00,,,0.16,,2013-03-10 22:02:00,
2013-03-10 17:12:00,33.0,31.0,29.76,NW,314,15.0,24.0,91,0.00,,,0.16,,2013-03-10 22:12:00,
2013-03-10 17:22:00,32.0,29.0,29.76,NNW,331,10.0,18.0,90,0.00,,,0.16,,2013-03-10 22:22:00,
2013-03-10 17:32:00,32.0,29.0,29.79,NW,326,11.0,14.0,90,0.00,,,0.16,,2013-03-10 22:32:00,
2013-03-10 17:42:00,32.0,29.0,29.79,NW,326,11.0,14.0,90,0.00,,,0.16,,2013-03-10 22:42:00,
2013-03-10 17:53:00,32.0,29.0,29.76,NNW,329,11.0,21.0,90,0.00,,,0.16,,2013-03-10 22:53:00,
2013-03-10 18:02:00,31.0,28.0,29.77,NNW,336,21.0,24.0,90,0.00,,,0.10,,2013-03-10 23:02:00,
2013-03-10 18:12:00,31.0,28.0,29.78,NNW,336,13.0,21.0,89,0.00,,,0.10,,2013-03-10 23:12:00,
2013-03-10 18:22:00,31.0,28.0,29.78,NNW,336,13.0,21.0,89,0.00,,,0.10,,2013-03-10 23:22:00,
2013-03-10 18:32:00,31.0,28.0,29.78,NNW,336,7.0,15.0,89,0.00,,,0.10,,2013-03-10 23:32:00,
2013-03-10 18:42:00,31.0,28.0,29.78,NNW,336,7.0,15.0,89,0.00,,,0.10,,2013-03-10 23:42:00,
2013-03-10 18:52:00,31.0,28.0,29.78,NNW,336,14.0,19.0,89,0.00,,,0.10,,2013-03-10 23:52:00,
2013-03-10 19:02:00,31.0,28.0,29.80,NNW,336,8.0,13.0,88,0.00,,,0.09,,2013-03-11 00:02:00,
2013-03-10 19:12:00,31.0,28.0,29.80,NNW,336,8.0,13.0,88,0.00,,,0.09,,2013-03-11 00:12:00,
2013-03-10 19:22:00,31.0,28.0,29.80,NNW,336,26.0,26.0,88,0.00,,,0.09,,2013-03-11 00:22:00,
2013-03-10 19:33:00,30.0,27.0,29.81,NNW,336,12.0,17.0,87,0.00,,,0.09,,2013-03-11 00:33:00,
2013-03-10 19:42:00,30.0,27.0,29.81,NNW,336,12.0,17.0,87,0.00,,,0.09,,2013-03-11 00:42:00,
2013-03-10 19:52:00,30.0,26.0,29.80,NNW,336,6.0,17.0,85,0.00,,,0.09,,2013-03-11 00:52:00,
2013-03-10 20:02:00,30.0,26.0,29.83,NNW,336,16.0,19.0,85,0.00,,,0.05,,2013-03-11 01:02:00,
2013-03-10 20:12:00,30.0,26.0,29.83,NNW,336,16.0,19.0,85,0.00,,,0.05,,2013-03-11 01:12:00,
2013-03-10 20:22:00,30.0,25.0,29.82,NNW,336,7.0,15.0,83,0.00,,,0.05,,2013-03-11 01:22:00,
2013-03-10 20:32:00,30.0,25.0,29.84,NNW,336,9.0,18.0,83,0.00,,,0.05,,2013-03-11 01:32:00,
2013-03-10 20:42:00,30.0,25.0,29.84,NNW,336,9.0,18.0,83,0.00,,,0.05,,2013-03-11 01:42:00,
2013-03-10 20:53:00,30.0,25.0,29.84,NNW,336,9.0,18.0,82,0.00,,,0.05,,2013-03-11 01:53:00,
2013-03-10 21:02:00,30.0,25.0,29.84,NNW,336,15.0,21.0,81,0.00,,,0.03,,2013-03-11 02:02:00,
2013-03-10 21:12:00,30.0,25.0,29.84,NNW,336,15.0,21.0,81,0.00,,,0.03,,2013-03-11 02:12:00,
2013-03-10 21:22:00,30.0,25.0,29.83,NNW,336,2.0,11.0,81,0.00,,,0.03,,2013-03-11 02:22:00,
2013-03-10 21:32:00,30.0,25.0,29.84,NNW,336,14.0,14.0,82,0.00,,,0.03,,2013-03-11 02:32:00,
2013-03-10 21:42:00,30.0,25.0,29.84,NNW,336,14.0,14.0,82,0.00,,,0.03,,2013-03-11 02:42:00,
2013-03-10 21:52:00,30.0,25.0,29.85,NNW,336,15.0,18.0,82,0.00,,,0.03,,2013-03-11 02:52:00,
2013-03-10 22:02:00,29.0,24.0,29.85,NNW,335,11.0,16.0,82,0.00,,,0.03,,2013-03-11 03:02:00,
2013-03-10 22:12:00,29.0,24.0,29.85,NNW,335,11.0,16.0,82,0.00,,,0.03,,2013-03-11 03:12:00,
2013-03-10 22:22:00,29.0,24.0,29.86,NNW,335,13.0,16.0,82,0.00,,,0.03,,2013-03-11 03:22:00,
2013-03-10 22:32:00,29.0,24.0,29.85,NNW,335,6.0,9.0,82,0.00,,,0.03,,2013-03-11 03:32:00,
2013-03-10 22:40:00,28.0,24.0,29.88,NNW,335,6.0,15.0,84,0.00,,,0.03,,2013-03-11 03:40:00,
2013-03-10 22:42:00,29.0,24.0,29.85,NNW,335,6.0,9.0,82,0.00,,,0.03,,2013-03-11 03:42:00,
2013-03-10 22:53:00,28.0,24.0,29.87,NNW,335,2.0,12.0,83,0.00,,,0.03,,2013-03-11 03:53:00,
2013-03-10 23:02:00,28.0,24.0,29.88,NNW,335,6.0,15.0,84,0.00,,,0.03,,2013-03-11 04:02:00,
2013-03-10 23:12:00,28.0,24.0,29.88,NNW,335,6.0,15.0,84,0.00,,,0.03,,2013-03-11 04:12:00,
2013-03-10 23:22:00,28.0,24.0,29.88,NNW,335,6.0,15.0,84,0.00,,,0.03,,2013-03-11 04:22:00,
2013-03-10 23:32:00,28.0,24.0,29.88,NNW,335,6.0,15.0,84,0.00,,,0.03,,2013-03-11 04:32:00,
2013-03-10 23:53:00,28.0,24.0,29.87,NNW,335,8.0,12.0,85,0.00,,,0.03,,2013-03-11 04:53:00,